{"data":{"norad_id":53182,"epoch":"2026-05-25T00:41:25.378944Z","epoch_age_seconds":82756,"freshness":"FRESH","line1":"1 53182U 22083BC  26145.02876596  .00000065  00000+0  22193-4 0  9996","line2":"2 53182  53.2140 156.4104 0000932  81.6639 278.4458 15.08840319213221","mean_motion":15.08840319,"eccentricity":9.32e-5,"inclination_deg":53.214,"raan_deg":156.4104,"arg_perigee_deg":81.6639,"mean_anomaly_deg":278.4458,"bstar":2.2193e-5,"rev_number":21322,"period_min":95.437534500296,"perigee_km":539.09766754752,"apogee_km":540.38716027027,"semimajor_km":6917.8794139089,"source":"CELESTRAK","updated_at":"2026-05-25T13:38:17.326470Z"}}